Regional Weather Roundup
Issued by NWS

Home | Current Version | Previous Version | Text Only | Print | Product List | Glossary On
Versions: 1 2 3 4 5 6 7 8 9 10 11 12 13 14 15 16 17 18 19 20 21 22 23 24 25 26 27 28 29 30 31 32 33 34 35 36 37 38 39 40 41 42 43 44 45 46 47 48 49 50
000
ASUS44 KFWD 260515
RWRTX
NORTH TEXAS HOURLY WEATHER ROUNDUP
NATIONAL WEATHER SERVICE FORT WORTH TX
1200 AM CDT SAT JUL 26 2014

NOTE: "FAIR" INDICATES FEW OR NO CLOUDS BELOW 12,000 FEET WITH NO
SIGNIFICANT WEATHER AND/OR OBSTRUCTIONS TO VISIBILITY.

TXZ118-119-260600-
DALLAS/FORT WORTH METROPLEX

CITY           SKY/WX    TMP DP  RH WIND       PRES   REMARKS
DFW AIRPORT    PTCLDY    87  69  54 S13       29.96R HX  91
DALLAS LOVE    CLEAR     86  70  58 S16       29.96R HX  90
FTW MEACHAM    CLEAR     87  69  54 S12       29.95R HX  91
DAL-EXECUTIVE  CLEAR     85  69  58 S8        29.97R
FTW-ALLIANCE   PTCLDY    84  67  56 S9        29.95R
FTW-NAS-JRB    CLEAR     89  66  46 S14       29.99R HX  91
FTW-SPINKS     CLEAR     84  69  59 S8        29.98R
ARLINGTON      CLEAR     85  69  58 S8        29.97R
GRAND PRAIRIE  CLEAR     86  68  54 SE10      29.98R
ADDISON        CLEAR     86  69  56 S8        29.98S HX  90
MESQUITE       CLEAR     81  71  71 S8        29.97R
LANCASTER      CLEAR     82  69  65 S6        29.98R
$$

TXZ091>094-102>105-117-120-121-131>134-260600-
NORTH CENTRAL TEXAS

CITY           SKY/WX    TMP DP  RH WIND       PRES   REMARKS
SHRMAN/DENISON CLEAR     84  70  61 S15       29.97S
GAINESVILLE    CLEAR     81  71  70 SE8       29.97S
BOWIE          CLEAR     82  67  59 S8        29.96S
BRIDGEPORT     CLEAR     85  62  45 S8        29.97R
DECATUR        CLEAR     85  64  50 S12       29.97R
DENTON         CLEAR     83  69  62 S7        29.95R
MCKINNEY       CLEAR     84  72  67 S10       29.97R
GREENVILLE     CLEAR     81  70  69 S6        29.98S
ROCKWALL       CLEAR     82  73  74 S7        29.97R
TERRELL        CLEAR     82  74  76 S6        29.98R
WAXAHACHIE     CLEAR     81  67  61 S8        29.99R
CLEBURNE       CLEAR     82  72  69 SE9       29.99S
GRANBURY       CLEAR     86  67  53 SE7       29.97S
$$

TXZ083>090-098>101-113>116-127>130-139>142-154-155-260600-
WESTERN NORTH TEXAS

CITY           SKY/WX    TMP DP  RH WIND       PRES   REMARKS
WICHITA FALLS  CLEAR     84  64  50 S13       29.92R
WF-KICKAPOO    CLEAR     81  64  54 S7        29.94S
VERNON         CLEAR     87  55  33 S9        29.93R
ABILENE        CLEAR     83  63  50 SE10      30.00R
ABILENE-DYESS  CLEAR     83  64  53 S10       29.98S
BRECKENRIDGE   CLEAR     87  62  42 S12G20    29.96S
GRAHAM         CLEAR     86  62  45 SE6       29.94F
MINERAL WELLS  CLEAR     83  66  56 S9        29.95S
STEPHENVILLE   CLEAR     81  66  61 S5        30.02S
COMANCHE       CLEAR     81  65  58 S7        30.00S
BROWNWOOD      MOCLDY    82  64  54 SE9       30.00S
COLEMAN        CLEAR     84  63  49 S14G20    30.00F
BRADY          CLEAR     82  63  51 SE7       30.02S
$$

TXZ143>147-156>162-174-175-260600-
CENTRAL TEXAS

CITY           SKY/WX    TMP DP  RH WIND       PRES   REMARKS
WACO           CLEAR     85  70  60 S13G22    29.97S
WACO-MCGREGOR  CLEAR     82  66  57 S13       30.00S
HILLSBORO      CLEAR     82  69  64 SE7       29.98S
CORSICANA      CLEAR     80  72  76 SE7       29.99R
MEXIA          CLEAR     78  72  83 S3        29.98R
CAMERON        CLEAR     82  72  72 S9        29.99R
TEMPLE         CLEAR     82  66  57 SE13      30.00R
KILLEEN        CLEAR     81  70  69 SE12      30.00R
KILLEEN-SKYLRK CLEAR     82  66  57 S10       30.00R
FORT HOOD      CLEAR     85  70  60 SE9       30.00R
GATESVILLE     CLEAR     81  70  69 SE5       30.01S
HAMILTON       CLEAR     80  67  63 S7        30.02R
LAMPASAS       CLEAR     82  70  66 SE6       30.00S
$$

TXZ095>097-106>112-122>126-135>138-148>153-164>167-260600-
EAST TEXAS

CITY           SKY/WX    TMP DP  RH WIND       PRES   REMARKS
PARIS          CLEAR     79  70  73 S7        29.98S
SULPHUR SPRNGS CLEAR     82  71  71 S7        30.00R
CLARKSVILLE    PTCLDY    80  73  79 S3        29.98S
MOUNT PLEASANT CLEAR     77  74  91 SE3       29.99S
GILMER         CLEAR     79  75  89 S3        30.01R
MINEOLA        CLEAR     81  73  78 S5        29.99S
TYLER          CLEAR     78  72  81 SE5       29.99R
LONGVIEW       CLEAR     79  74  84 S3        29.99R
MARSHALL       CLEAR     78  76  92 CALM      30.01S
ATHENS         CLEAR     73  72  94 CALM      29.99R
JACKSONVILLE   CLEAR     80  72  77 CALM      30.03R
HENDERSON      CLEAR     76  74  96 CALM      30.01R
NACOGDOCHES    CLEAR     75  73  94 CALM      30.01R
LUFKIN         CLEAR     82  74  76 SE5       30.00R
$$

SUPPLEMENTAL OBSERVATIONS (CENTRAL)

CITY           SKY/WX    TMP DP  RH WIND       PRES   REMARKS
CADDO GRASSLND   N/A     81  72  74 S8          N/A
PAT MAYSE LAKE   N/A     82  73  74 SE9         N/A
GREENVILLE       N/A     81  70  69 S6          N/A
CEDAR HILL       N/A     84  68  58 SE10        N/A
PALESTINE        N/A     77  72  83 S2          N/A
LAKE LIMESTONE   N/A     79  75  89 S5          N/A
MCGREGOR         N/A     82  70  65 S13         N/A
TEMPLE           N/A     81  72  74 S8          N/A
$$

SUPPLEMENTAL OBSERVATIONS (WEST)

CITY           SKY/WX    TMP DP  RH WIND       PRES   REMARKS
MILLERS CREEK    N/A     86  57  37 S13         N/A
POSSUM KINGDOM   N/A     84  61  45 S7          N/A
LBJ GRASSLAND    N/A     82  64  54 S8          N/A
GRANBURY         N/A     86  66  51 S9          N/A
COMANCHE         N/A     81  63  54 S9          N/A
HAMBY            N/A     82  61  47 SE8         N/A
IVIE RESERVOIR   N/A    N/A N/A N/A SE6         N/A
COLORADO BEND    N/A     81  64  57 SE5         N/A
$$

SUPPLEMENTAL OBSERVATIONS (EAST)

CITY           SKY/WX    TMP DP  RH WIND       PRES   REMARKS
CLARKSVILLE      N/A     79  73  83 S6          N/A
TEXARKANA        N/A     73  70  88 CALM        N/A
LINDEN           N/A     79  75  89 CALM        N/A
CADDO LAKE       N/A     73  72  94 CALM        N/A
GILMER           N/A     75  70  83 CALM        N/A
HENDERSON        N/A     75  70  83 CALM        N/A
LUFKIN           N/A     79  77  94 MISG        N/A
N SABINE NF      N/A     75  72  88 MISG        N/A
S SABINE NF      N/A     75  72  88 SW2         N/A
$$

SUPPLEMENTAL OBSERVATIONS ARE A COLLECTION OF AUTOMATED INSTRUMENTS
THAT ARE MAINTAINED BY A VARIETY OF FEDERAL AND STATE AGENCIES.
CERTAIN ELEMENTS...SUCH AS HUMIDITY VALUES AND SUSTAINED WIND
SPEEDS...MAY BE APPROXIMATED.



USA.gov is the U.S. government's official web portal to all federal, state and local government web resources and services.